N418RE PAVE-PAFA

Flight info

Callsign N418RE
Flight time 0h 47m
Altitude 11000
Route ZUREP
Aircraft C408/M-SDFGRY/S

Departure

Time 2026-04-25 08:53
Airport Venetie Airport (PAVE)

Arrival

Time 2026-04-25 09:40
Airport Fairbanks International Airport (PAFA)
Time Latitude Longitude Altitude Speed Heading
2026-04-25 08:47 67.00807 -146.37919 579 ft 0 kts 321°
2026-04-25 08:50 67.00813 -146.37948 579 ft 5 kts 265°
2026-04-25 08:50 67.00764 -146.37989 579 ft 12 kts 183°
2026-04-25 08:51 67.00671 -146.37938 579 ft 16 kts 150°
2026-04-25 08:51 67.00616 -146.37861 580 ft 8 kts 174°
2026-04-25 08:51 67.00585 -146.37984 580 ft 13 kts 250°
2026-04-25 08:51 67.00562 -146.38102 579 ft 6 kts 168°
2026-04-25 08:52 67.00569 -146.38026 579 ft 11 kts 57°
2026-04-25 08:52 67.00705 -146.37389 578 ft 78 kts 61°
2026-04-25 08:52 67.01063 -146.35781 696 ft 122 kts 58°
2026-04-25 08:52 67.01592 -146.33973 978 ft 138 kts 44°
2026-04-25 08:53 67.01898 -146.31787 1504 ft 130 kts 103°
2026-04-25 08:53 67.01323 -146.30273 2153 ft 121 kts 166°
2026-04-25 08:53 67.00579 -146.30920 2744 ft 116 kts 227°
2026-04-25 08:53 67.00042 -146.32390 3320 ft 111 kts 225°
2026-04-25 08:54 66.99516 -146.33839 3837 ft 111 kts 226°
2026-04-25 08:54 66.98988 -146.35298 4332 ft 112 kts 226°
2026-04-25 08:54 66.98460 -146.36764 4832 ft 112 kts 226°
2026-04-25 08:54 66.97986 -146.38347 5308 ft 113 kts 240°
2026-04-25 08:55 66.97505 -146.39892 5812 ft 111 kts 218°
2026-04-25 08:55 66.96803 -146.40689 6293 ft 112 kts 199°
2026-04-25 08:55 66.96066 -146.41348 6773 ft 113 kts 198°
2026-04-25 08:55 66.95314 -146.41923 7261 ft 113 kts 198°
2026-04-25 08:56 66.94561 -146.42500 7729 ft 114 kts 196°
2026-04-25 08:56 66.93807 -146.43057 8190 ft 114 kts 197°
2026-04-25 08:56 66.93042 -146.43612 8663 ft 115 kts 197°
2026-04-25 08:56 66.92273 -146.44179 9138 ft 115 kts 197°
2026-04-25 08:57 66.91506 -146.44738 9607 ft 114 kts 197°
2026-04-25 08:57 66.90744 -146.45288 10088 ft 114 kts 198°
2026-04-25 08:57 66.89985 -146.45845 10552 ft 113 kts 197°
2026-04-25 08:57 66.89230 -146.46380 10977 ft 113 kts 198°
2026-04-25 08:58 66.88407 -146.47007 11122 ft 139 kts 197°
2026-04-25 08:58 66.87385 -146.47737 11130 ft 163 kts 198°
2026-04-25 08:58 66.86248 -146.48568 11128 ft 176 kts 198°
2026-04-25 08:58 66.85060 -146.49433 11111 ft 180 kts 197°
2026-04-25 08:59 66.83843 -146.50307 11109 ft 182 kts 197°
2026-04-25 08:59 66.82627 -146.51178 11109 ft 182 kts 197°
2026-04-25 08:59 66.81417 -146.52054 11112 ft 180 kts 197°
2026-04-25 08:59 66.80205 -146.52928 11108 ft 182 kts 197°
2026-04-25 09:00 66.78993 -146.53806 11111 ft 181 kts 197°
2026-04-25 09:00 66.77775 -146.54686 11105 ft 182 kts 197°
2026-04-25 09:00 66.76561 -146.55540 11113 ft 181 kts 197°
2026-04-25 09:00 66.75362 -146.56411 11099 ft 178 kts 197°
2026-04-25 09:01 66.74184 -146.57252 11096 ft 179 kts 197°
2026-04-25 09:01 66.72988 -146.58121 11095 ft 179 kts 197°
2026-04-25 09:01 66.71788 -146.58956 11093 ft 179 kts 196°
2026-04-25 09:01 66.70609 -146.59801 11093 ft 175 kts 197°
2026-04-25 09:02 66.69436 -146.60650 11094 ft 176 kts 197°
2026-04-25 09:02 66.68261 -146.61481 11092 ft 175 kts 197°
2026-04-25 09:02 66.67100 -146.62307 11095 ft 173 kts 197°
2026-04-25 09:02 66.65950 -146.63115 11095 ft 170 kts 197°
2026-04-25 09:03 66.64807 -146.63930 11090 ft 169 kts 197°
2026-04-25 09:03 66.63673 -146.64740 11095 ft 170 kts 197°
2026-04-25 09:03 66.62530 -146.65553 11093 ft 171 kts 197°
2026-04-25 09:03 66.61393 -146.66351 11093 ft 168 kts 197°
2026-04-25 09:04 66.60285 -146.67143 11091 ft 166 kts 197°
2026-04-25 09:04 66.59174 -146.67939 11092 ft 166 kts 197°
2026-04-25 09:04 66.58066 -146.68716 11091 ft 165 kts 197°
2026-04-25 09:04 66.56964 -146.69484 11092 ft 164 kts 197°
2026-04-25 09:05 66.56218 -146.70024 11099 ft 166 kts 198°
2026-04-25 09:05 66.55093 -146.70816 11115 ft 174 kts 197°
2026-04-25 09:05 66.53891 -146.71665 11111 ft 183 kts 197°
2026-04-25 09:05 66.52651 -146.72531 11108 ft 187 kts 197°
2026-04-25 09:06 66.51401 -146.73409 11108 ft 186 kts 197°
2026-04-25 09:06 66.50142 -146.74290 11117 ft 189 kts 197°
2026-04-25 09:06 66.48888 -146.75179 11109 ft 187 kts 197°
2026-04-25 09:06 66.47638 -146.76043 11112 ft 187 kts 197°
2026-04-25 09:07 66.46390 -146.76922 11109 ft 187 kts 197°
2026-04-25 09:07 66.45131 -146.77797 11110 ft 187 kts 197°
2026-04-25 09:07 66.43876 -146.78679 11112 ft 187 kts 197°
2026-04-25 09:07 66.42621 -146.79559 11107 ft 187 kts 197°
2026-04-25 09:08 66.41381 -146.80424 11103 ft 187 kts 197°
2026-04-25 09:08 66.40131 -146.81293 11106 ft 187 kts 197°
2026-04-25 09:08 66.38875 -146.82165 11104 ft 186 kts 197°
2026-04-25 09:08 66.37630 -146.83035 11101 ft 185 kts 197°
2026-04-25 09:09 66.36392 -146.83890 11100 ft 184 kts 197°
2026-04-25 09:09 66.35150 -146.84748 11103 ft 186 kts 197°
2026-04-25 09:09 66.33893 -146.85624 11098 ft 189 kts 197°
2026-04-25 09:09 66.32628 -146.86509 11101 ft 189 kts 197°
2026-04-25 09:10 66.31363 -146.87375 11099 ft 189 kts 197°
2026-04-25 09:10 66.30099 -146.88253 11102 ft 188 kts 197°
2026-04-25 09:10 66.28833 -146.89124 11101 ft 189 kts 197°
2026-04-25 09:10 66.27569 -146.89977 11100 ft 187 kts 196°
2026-04-25 09:11 66.25075 -146.91716 11099 ft 187 kts 197°
2026-04-25 09:11 66.23803 -146.92590 11098 ft 187 kts 197°
2026-04-25 09:11 66.22545 -146.93450 11102 ft 188 kts 197°
2026-04-25 09:12 66.21298 -146.94292 11099 ft 188 kts 197°
2026-04-25 09:12 66.20022 -146.95171 11098 ft 188 kts 197°
2026-04-25 09:12 66.18766 -146.96043 11099 ft 186 kts 197°
2026-04-25 09:12 66.17539 -146.96885 11097 ft 184 kts 197°
2026-04-25 09:13 66.16295 -146.97724 11095 ft 185 kts 197°
2026-04-25 09:13 66.15055 -146.98568 11094 ft 185 kts 197°
2026-04-25 09:13 66.13811 -146.99414 11089 ft 186 kts 197°
2026-04-25 09:13 66.12557 -147.00268 11090 ft 187 kts 197°
2026-04-25 09:14 66.11302 -147.01126 11091 ft 187 kts 197°
2026-04-25 09:14 66.10047 -147.01976 11091 ft 187 kts 197°
2026-04-25 09:14 66.08794 -147.02825 11091 ft 186 kts 197°
2026-04-25 09:14 66.07546 -147.03673 11092 ft 186 kts 197°
2026-04-25 09:15 66.06296 -147.04519 11092 ft 186 kts 197°
2026-04-25 09:15 66.05043 -147.05369 11087 ft 189 kts 195°
2026-04-25 09:15 66.03764 -147.06235 11085 ft 192 kts 194°
2026-04-25 09:15 66.02468 -147.07106 11087 ft 193 kts 194°
2026-04-25 09:16 66.01173 -147.07983 11090 ft 193 kts 194°
2026-04-25 09:16 65.99877 -147.08851 11091 ft 193 kts 194°
2026-04-25 09:16 65.98603 -147.09709 11089 ft 192 kts 194°
2026-04-25 09:16 65.97315 -147.10577 11089 ft 192 kts 194°
2026-04-25 09:17 65.94722 -147.12317 11074 ft 193 kts 194°
2026-04-25 09:17 65.93428 -147.13183 11073 ft 193 kts 194°
2026-04-25 09:17 65.92131 -147.14058 11074 ft 193 kts 194°
2026-04-25 09:18 65.90834 -147.14923 11071 ft 194 kts 194°
2026-04-25 09:18 65.89537 -147.15787 11065 ft 193 kts 194°
2026-04-25 09:18 65.88241 -147.16652 11066 ft 193 kts 194°
2026-04-25 09:18 65.86946 -147.17518 11066 ft 193 kts 194°
2026-04-25 09:19 65.85645 -147.18383 11063 ft 194 kts 194°
2026-04-25 09:19 65.84342 -147.19249 11058 ft 194 kts 194°
2026-04-25 09:19 65.83041 -147.20112 11059 ft 194 kts 194°
2026-04-25 09:19 65.81737 -147.20978 11063 ft 194 kts 194°
2026-04-25 09:20 65.80432 -147.21844 11061 ft 194 kts 194°
2026-04-25 09:20 65.79136 -147.22700 11063 ft 193 kts 194°
2026-04-25 09:20 65.77838 -147.23562 11064 ft 194 kts 194°
2026-04-25 09:20 65.76540 -147.24425 11070 ft 194 kts 194°
2026-04-25 09:21 65.75238 -147.25284 11061 ft 194 kts 194°
2026-04-25 09:21 65.73954 -147.26128 11062 ft 194 kts 194°
2026-04-25 09:21 65.72650 -147.26987 11048 ft 195 kts 194°
2026-04-25 09:21 65.71346 -147.27846 11047 ft 194 kts 194°
2026-04-25 09:22 65.70047 -147.28701 11048 ft 194 kts 194°
2026-04-25 09:22 65.68743 -147.29559 11047 ft 194 kts 194°
2026-04-25 09:22 65.67442 -147.30411 11047 ft 193 kts 194°
2026-04-25 09:22 65.66145 -147.31262 11043 ft 193 kts 194°
2026-04-25 09:23 65.64848 -147.32110 11046 ft 193 kts 194°
2026-04-25 09:23 65.63554 -147.32957 11045 ft 192 kts 194°
2026-04-25 09:23 65.62265 -147.33798 11046 ft 192 kts 194°
2026-04-25 09:23 65.60972 -147.34646 11047 ft 193 kts 194°
2026-04-25 09:24 65.59674 -147.35490 11042 ft 193 kts 194°
2026-04-25 09:24 65.58378 -147.36335 11041 ft 192 kts 194°
2026-04-25 09:24 65.57086 -147.37178 11039 ft 192 kts 194°
2026-04-25 09:24 65.55793 -147.38018 11040 ft 192 kts 194°
2026-04-25 09:25 65.54503 -147.38856 11042 ft 192 kts 194°
2026-04-25 09:25 65.53209 -147.39694 11040 ft 193 kts 194°
2026-04-25 09:25 65.51932 -147.40523 11042 ft 193 kts 194°
2026-04-25 09:25 65.50641 -147.41357 11041 ft 192 kts 194°
2026-04-25 09:26 65.49350 -147.42192 11041 ft 192 kts 194°
2026-04-25 09:26 65.48057 -147.43031 11039 ft 192 kts 194°
2026-04-25 09:26 65.46768 -147.43861 11042 ft 192 kts 194°
2026-04-25 09:26 65.45475 -147.44697 11042 ft 192 kts 194°
2026-04-25 09:27 65.44180 -147.45532 11042 ft 193 kts 194°
2026-04-25 09:27 65.42882 -147.46366 11034 ft 193 kts 194°
2026-04-25 09:27 65.41583 -147.47202 11034 ft 193 kts 194°
2026-04-25 09:27 65.40291 -147.48030 11034 ft 193 kts 194°
2026-04-25 09:28 65.38996 -147.48861 11034 ft 193 kts 194°
2026-04-25 09:28 65.37699 -147.49692 11033 ft 193 kts 194°
2026-04-25 09:28 65.36404 -147.50521 11033 ft 192 kts 194°
2026-04-25 09:28 65.35128 -147.51341 11033 ft 192 kts 194°
2026-04-25 09:29 65.33835 -147.52166 11032 ft 192 kts 194°
2026-04-25 09:29 65.32542 -147.52991 11032 ft 192 kts 194°
2026-04-25 09:29 65.31247 -147.53817 11033 ft 192 kts 194°
2026-04-25 09:29 65.29955 -147.54640 11032 ft 192 kts 194°
2026-04-25 09:30 65.28661 -147.55464 11032 ft 192 kts 194°
2026-04-25 09:30 65.27369 -147.56286 11033 ft 192 kts 194°
2026-04-25 09:30 65.26077 -147.57106 11033 ft 192 kts 194°
2026-04-25 09:30 65.24785 -147.57926 11033 ft 192 kts 194°
2026-04-25 09:31 65.23491 -147.58744 11032 ft 192 kts 194°
2026-04-25 09:31 65.22198 -147.59565 11034 ft 192 kts 194°
2026-04-25 09:31 65.20906 -147.60383 11034 ft 192 kts 194°
2026-04-25 09:31 65.19628 -147.61190 11033 ft 192 kts 194°
2026-04-25 09:32 65.18334 -147.62006 11032 ft 192 kts 194°
2026-04-25 09:32 65.17042 -147.62823 11035 ft 192 kts 194°
2026-04-25 09:32 65.15751 -147.63635 11034 ft 192 kts 194°
2026-04-25 09:32 65.14458 -147.64448 11033 ft 192 kts 194°
2026-04-25 09:33 65.13170 -147.65259 11035 ft 191 kts 194°
2026-04-25 09:33 65.11881 -147.66069 11035 ft 192 kts 194°
2026-04-25 09:33 65.10590 -147.66880 11034 ft 192 kts 194°
2026-04-25 09:33 65.09301 -147.67688 11033 ft 192 kts 194°
2026-04-25 09:34 65.08013 -147.68493 11034 ft 191 kts 194°
2026-04-25 09:34 65.06726 -147.69298 11033 ft 191 kts 194°
2026-04-25 09:34 65.05455 -147.70093 11033 ft 191 kts 194°
2026-04-25 09:34 65.04170 -147.70895 11033 ft 191 kts 194°
2026-04-25 09:35 65.02885 -147.71697 11034 ft 191 kts 194°
2026-04-25 09:35 65.01597 -147.72501 11034 ft 192 kts 194°
2026-04-25 09:35 65.00310 -147.73300 11033 ft 191 kts 194°
2026-04-25 09:35 64.99020 -147.74101 11035 ft 192 kts 194°
2026-04-25 09:36 64.97731 -147.74903 11035 ft 192 kts 194°
2026-04-25 09:36 64.96439 -147.75705 11033 ft 192 kts 194°
2026-04-25 09:36 64.95149 -147.76505 11035 ft 191 kts 194°
2026-04-25 09:36 64.93861 -147.77303 11034 ft 192 kts 194°
2026-04-25 09:37 64.92572 -147.78101 11034 ft 191 kts 194°
2026-04-25 09:37 64.91287 -147.78895 11033 ft 191 kts 194°
2026-04-25 09:37 64.90002 -147.79690 11034 ft 191 kts 194°
2026-04-25 09:37 64.88713 -147.80483 11034 ft 191 kts 194°
2026-04-25 09:38 64.87420 -147.81282 11034 ft 191 kts 194°
2026-04-25 09:38 64.86131 -147.82073 11034 ft 191 kts 194°
2026-04-25 09:38 64.84851 -147.82863 10970 ft 177 kts 194°
2026-04-25 09:38 64.83882 -147.84683 8298 ft 220 kts 223°
2026-04-25 09:39 64.82697 -147.87134 5702 ft 229 kts 219°
2026-04-25 09:39 64.81437 -147.89646 3896 ft 226 kts 219°
2026-04-25 09:39 64.80209 -147.91743 2048 ft 222 kts 193°
2026-04-25 09:40 64.79857 -147.87871 543 ft 152 kts 40°
2026-04-25 09:40 64.80545 -147.86607 432 ft 100 kts 38°
2026-04-25 09:40 64.80933 -147.85896 439 ft 29 kts 38°
2026-04-25 09:40 64.80978 -147.85740 432 ft 10 kts 133°